Lexington Weather

Lexington, Massachusetts, USA

26°F
1/21/2021 10:42am 
  • Lexington Conditions: Clear
  • Temperature: 26.2°F / -3.2°CWarmer 1.9°F than last hour.
  • Dew Point: 14.5°FIncreased 1.4°Fsince last hour.
  • Relative Humidity: 61%Decreased 1.0% since last hour.
  • Wind: Wind from SSW SSW 1 mph, 10-min avg: Calm, gust: 3 mph
  • Barometer: 29.76 in Steady
  • Visibility: 10 miles
  • Snow Today: 0.0 in
  •   

Regional Weather Roundup
for Boston / Norton, MA

        
000
ASUS41 KBOX 201704
RWRBOX

REGIONAL WEATHER ROUNDUP
NATIONAL WEATHER SERVICE BOSTON/NORTON MA
1200 PM EST WED JAN 20 2021

NOTE:  "FAIR" INDICATES FEW OR NO CLOUDS BELOW 12,000 FEET WITH NO 
SIGNIFICANT WEATHER AND/OR OBSTRUCTIONS TO VISIBILITY.

MAZALL-201800-
EASTERN MASSACHUSETTS
  
CITY           SKY/WX    TMP DP  RH WIND       PRES   REMARKS
BOSTON         CLOUDY    36  20  52 NW8       29.81F WCI  30          
BEVERLY        PTSUNNY   36  21  54 NW6       29.79F WCI  31          
LAWRENCE       PTSUNNY   35  19  52 NW7       29.81F WCI  29          
BEDFORD        PTSUNNY   35  21  56 NW8       29.80F WCI  29          
BLUE HILL      NOT AVBL                                               
NORWOOD        CLOUDY    38  22  52 NW8       29.81F                  
MARSHFIELD     PTSUNNY   36  28  75 VRB7G13   29.80F WCI  30          
PLYMOUTH       PTSUNNY   34  28  79 W8        29.80F WCI  27          
TAUNTON        CLOUDY    36  28  73 NW6       29.80F WCI  31          
NEW BEDFORD    PTSUNNY   35  30  82 VRB7      29.79F WCI  29          
$$

MAZALL-201800-
CAPE COD AND THE ISLANDS
  
CITY           SKY/WX    TMP DP  RH WIND       PRES   REMARKS
FALMOUTH       PTSUNNY   34  28  80 NW9       29.79F WCI  26          
HYANNIS        CLOUDY    35  28  75 NW7       29.77F WCI  29          
CHATHAM        CLOUDY    35  26  69 VRB6      29.80F WCI  30          
PROVINCETOWN   PTSUNNY   35  27  72 NW12      29.80F WCI  27          
NANTUCKET      LGT SNOW  33  30  88 NW10      29.79F FOG     WCI  25  
MARTHAS VNYRD  CLOUDY    35  31  85 NW12      29.79F WCI  27          
$$
 
MAZALL-201800-
CENTRAL AND WESTERN MASSACHUSETTS
  
CITY           SKY/WX    TMP DP  RH WIND       PRES   REMARKS
WORCESTER      CLOUDY    33  20  58 NW12      29.77F WCI  24          
FITCHBURG      PTSUNNY   34  22  61 N9        29.81F WCI  27          
ORANGE         MOSUNNY   33  22  63 NW9       29.81F WCI  25          
SPRINGFIELD    NOT AVBL                                               
WESTFIELD      PTSUNNY   35  20  54 NW13      29.82F WCI  26          
NORTH ADAMS    LGT SNOW  28  22  78 VRB3      29.83F                  
PITTSFIELD     LGT SNOW  27  21  78 NW12      29.79F WCI  17          
$$
 
RIZALL-201800-
RHODE ISLAND
  
CITY           SKY/WX    TMP DP  RH WIND       PRES   REMARKS
PROVIDENCE     PTSUNNY   38  25  59 NW10      29.81F WCI  31          
NEWPORT        PTSUNNY   35  28  75 NW13      29.79F WCI  26          
BLOCK ISLAND   CLOUDY    34  27  75 NW13G18   29.81F WCI  25          
SMITHFIELD     CLOUDY    37  27  67 N12       29.80F WCI  29          
WESTERLY       PTSUNNY   34  27  75 NW9G20    29.82F WCI  27          
$$
 
CTZALL-201800-
CONNECTICUT
  
CITY           SKY/WX    TMP DP  RH WIND       PRES   REMARKS
BRADLEY INTL   PTSUNNY   38  20  48 NW13      29.82F WCI  30          
HARTFORD       PTSUNNY   40  24  53 NW12      29.83F                  
BRIDGEPORT     PTSUNNY   39  24  55 NW14G23   29.84F WCI  31          
DANBURY        PTSUNNY   37  23  56 NW13G22   29.84F WCI  29          
GROTON         PTSUNNY   36  27  69 NW13      29.82F WCI  27          
NEW HAVEN      CLOUDY    39  26  59 NW13      29.83F WCI  31          
CHESTER        PTSUNNY   36  27  69 N10       29.81F WCI  28          
MERIDEN        MOSUNNY   37  24  59 NW13      29.83F WCI  29          
WILLIMANTIC    PTSUNNY   35  26  69 NW9G17    29.82F WCI  28          
OXFORD         MOSUNNY   34  26  72 NW8       29.82F WCI  27          
$$

MEZ002-015-021-024-NHZ003-005-008-011-012-014-VTZ005-008-201800-
NORTHERN NEW ENGLAND
  
CITY           SKY/WX    TMP DP  RH WIND       PRES   REMARKS
PORTLAND ME    MOSUNNY   33  18  53 N7        29.80F WCI  27          
BANGOR ME      PTSUNNY   26  14  60 NW3       29.81F                  
CONCORD NH     PTSUNNY   34  16  47 NW9       29.79F WCI  27          
MANCHESTER NH  PTSUNNY   37  13  37 NW12G17   29.78F WCI  29          
NASHUA NH      PTSUNNY   35  18  49 NW7       29.81F WCI  29          
PORTSMOUTH NH  PTSUNNY   37  13  36 NW8       29.77F WCI  31          
JAFFREY NH     MOSUNNY   31  17  56 VRB6      29.77F WCI  25          
KEENE NH       CLOUDY    32  20  61 NW8       29.81F WCI  25          
BURLINGTON VT  LGT SNOW  25  18  74 N8        29.87F WCI  16          
MT. WASHINGTON DRFTSNOW   5   5 100 NW39        N/A  VSB 1/16WCI -22  
$$

NYZ052-076-201800-
EASTERN NEW YORK
  
CITY           SKY/WX    TMP DP  RH WIND       PRES   REMARKS
ALBANY         SNOW      24  24 100 NW7G23    29.89R VSB 1/2 WCI  16  
NEW YORK CITY  MOSUNNY   41  22  46 NW24G31   29.87F WCI  31          
$$
 
ANZALL-201800-
MARINE OBSERVATIONS
  
STATION/POSITION TIME  TEMP    WIND        PRES    VSBY  WAVE
                       AIR SEA DIR/SP/G                  HT/PER
                 (UTC) (F)     (DEG/KT/KT) (MB)    (MI)  (FT/S)
BOSTON BUOY      1640   35 43  310/  8/ 12 1010.0F
BUZZARDS BAY     1600          320/ 11/ 12 1011.0F
NANTUCKET SOUND  1640      40  310/ 12/ 14   N/A
MASS BAY-STELLWA 1604   35     320/  8/ 12 1008.9F  1 7/8  1
ISLE OF SHOALS   1600   34     310/ 10/ 12 1009.3F
S OF BLOCK IS    1626      48                N/A           5/ 7
$$

......................KEY.........................
  SKY/WX - SKY CONDITION/PRESENT WEATHER
  TMP    - TEMPERATURE IN FAHRENHEIT
  DWPT   - DEWPOINT IN FAHRENHEIT
  RH     - RELATIVE HUMIDITY IN PERCENT
  WIND   - DIRECTION AND SPEED IN MPH
  PRES   - MEAN SEA LEVEL PRESSURE IN INCHES OF HG
  WCI    - WIND CHILL INDEX
  VSB    - VISIBILITY IN MILES
  HX     - HEAT INDEX
  TC     - TEMPERATURE IN CELSIUS
  VRB    - VARIABLE WIND DIRECTION
  N/A    - NOT AVAILABLE
  
      

Other recent Regional Weather Roundups

Thu Jan 21, 9:04am

Thu Jan 21, 7:04am

Thu Jan 21, 6:04am

Thu Jan 21, 5:04am

Thu Jan 21, 4:04am

Thu Jan 21, 3:04am

Thu Jan 21, 2:04am

Thu Jan 21, 1:04am

Thu Jan 21, 12:04am

Wed Jan 20, 11:04pm

Wed Jan 20, 10:05pm

Wed Jan 20, 9:04pm

Wed Jan 20, 8:04pm

Wed Jan 20, 7:04pm

Wed Jan 20, 6:05pm

Wed Jan 20, 5:05pm

Wed Jan 20, 1:04pm

Wed Jan 20, 11:04am

Wed Jan 20, 10:04am

Wed Jan 20, 9:05am

Wed Jan 20, 8:04am

Wed Jan 20, 7:04am

Wed Jan 20, 6:04am

Wed Jan 20, 5:04am

Wed Jan 20, 4:04am

Wed Jan 20, 3:05am

Wed Jan 20, 2:04am

Wed Jan 20, 1:04am

Wed Jan 20, 12:04am

Tue Jan 19, 11:04pm

Tue Jan 19, 10:04pm

Tue Jan 19, 9:04pm

Tue Jan 19, 8:04pm

Tue Jan 19, 7:04pm

Tue Jan 19, 6:05pm

Tue Jan 19, 5:04pm

Tue Jan 19, 4:05pm

Tue Jan 19, 3:04pm

Tue Jan 19, 2:04pm

Tue Jan 19, 1:04pm

Tue Jan 19, 12:05pm

Tue Jan 19, 11:04am

Tue Jan 19, 10:05am

Tue Jan 19, 9:04am

Tue Jan 19, 8:04am

Tue Jan 19, 7:04am

Tue Jan 19, 6:04am

Tue Jan 19, 5:04am

Tue Jan 19, 4:04am

Tue Jan 19, 3:04am

Tue Jan 19, 2:04am

Tue Jan 19, 1:04am

Tue Jan 19, 12:04am

Mon Jan 18, 11:04pm

Mon Jan 18, 10:04pm

Mon Jan 18, 9:04pm

Mon Jan 18, 8:05pm

Mon Jan 18, 7:04pm

Mon Jan 18, 6:05pm

Mon Jan 18, 5:04pm

Mon Jan 18, 4:04pm

Mon Jan 18, 3:04pm

Mon Jan 18, 2:04pm

Mon Jan 18, 1:04pm

Mon Jan 18, 12:04pm

Mon Jan 18, 11:04am

Mon Jan 18, 10:04am

Mon Jan 18, 9:04am

Mon Jan 18, 8:04am

Mon Jan 18, 7:04am

Mon Jan 18, 6:04am

Mon Jan 18, 5:04am

Mon Jan 18, 4:04am

Mon Jan 18, 3:04am

Mon Jan 18, 2:04am

Mon Jan 18, 1:04am

Mon Jan 18, 12:04am

Sun Jan 17, 11:04pm

Sun Jan 17, 10:04pm

Sun Jan 17, 9:04pm

Sun Jan 17, 8:04pm

Sun Jan 17, 7:04pm

Sun Jan 17, 6:04pm

Sun Jan 17, 5:04pm

Sun Jan 17, 4:05pm

Sun Jan 17, 3:04pm

Sun Jan 17, 2:04pm

Sun Jan 17, 1:04pm

Sun Jan 17, 12:04pm

Sun Jan 17, 11:04am

Sun Jan 17, 10:04am

Sun Jan 17, 9:04am

Sun Jan 17, 8:04am

Sun Jan 17, 7:04am

Sun Jan 17, 6:04am

Sun Jan 17, 5:04am

Sun Jan 17, 4:04am

Sun Jan 17, 3:04am

Sun Jan 17, 2:04am

Sun Jan 17, 1:04am

Sun Jan 17, 12:04am

Sat Jan 16, 11:05pm

Sat Jan 16, 10:04pm

Sat Jan 16, 9:04pm

Sat Jan 16, 8:05pm

Sat Jan 16, 7:04pm

Sat Jan 16, 6:04pm

Sat Jan 16, 5:05pm

Sat Jan 16, 4:05pm

Sat Jan 16, 3:05pm

Sat Jan 16, 2:04pm

Sat Jan 16, 1:04pm

Sat Jan 16, 12:04pm

Sat Jan 16, 11:04am

Sat Jan 16, 10:05am

Sat Jan 16, 9:04am

Sat Jan 16, 8:04am

Sat Jan 16, 7:04am

Sat Jan 16, 6:04am

Sat Jan 16, 5:04am

Sat Jan 16, 4:04am

Sat Jan 16, 3:05am

Sat Jan 16, 2:04am

Sat Jan 16, 1:04am

Sat Jan 16, 12:05am

Fri Jan 15, 11:05pm

Fri Jan 15, 10:04pm

Fri Jan 15, 9:04pm

Fri Jan 15, 8:04pm

Fri Jan 15, 7:05pm

Fri Jan 15, 6:05pm

Fri Jan 15, 5:05pm

Fri Jan 15, 4:05pm

Fri Jan 15, 3:04pm

Fri Jan 15, 2:05pm

Fri Jan 15, 1:04pm

Fri Jan 15, 12:05pm

Fri Jan 15, 11:04am

Fri Jan 15, 10:04am

Fri Jan 15, 9:05am

Fri Jan 15, 8:04am

Fri Jan 15, 7:04am

Fri Jan 15, 6:04am

Fri Jan 15, 5:05am

Fri Jan 15, 4:04am

Fri Jan 15, 3:04am

Fri Jan 15, 2:04am

Fri Jan 15, 1:04am

Fri Jan 15, 12:05am

Thu Jan 14, 11:04pm

Thu Jan 14, 10:04pm

Thu Jan 14, 9:04pm

Thu Jan 14, 8:05pm

Thu Jan 14, 7:04pm

Thu Jan 14, 6:04pm

Thu Jan 14, 5:04pm

Thu Jan 14, 4:05pm

Thu Jan 14, 3:04pm

Thu Jan 14, 2:04pm

Thu Jan 14, 1:04pm

Thu Jan 14, 12:05pm

Thu Jan 14, 11:05am

Thu Jan 14, 10:04am

Thu Jan 14, 9:04am

Thu Jan 14, 8:04am

Thu Jan 14, 7:04am

Thu Jan 14, 6:04am

Thu Jan 14, 5:04am

Thu Jan 14, 4:04am

Thu Jan 14, 3:04am

Thu Jan 14, 2:04am

Thu Jan 14, 1:04am

Thu Jan 14, 12:04am

Wed Jan 13, 11:04pm

Wed Jan 13, 10:04pm

Wed Jan 13, 9:04pm

Wed Jan 13, 8:05pm

Wed Jan 13, 7:04pm

Wed Jan 13, 6:04pm

Wed Jan 13, 5:04pm

Wed Jan 13, 4:04pm

Wed Jan 13, 3:05pm

Wed Jan 13, 2:04pm

Wed Jan 13, 1:04pm

Wed Jan 13, 12:04pm

Wed Jan 13, 11:04am

Wed Jan 13, 10:04am

Wed Jan 13, 9:05am

Wed Jan 13, 8:04am

Wed Jan 13, 7:04am

Wed Jan 13, 6:04am

Wed Jan 13, 5:04am

Wed Jan 13, 4:04am

Wed Jan 13, 3:04am

Wed Jan 13, 2:04am

Wed Jan 13, 1:04am

Wed Jan 13, 12:05am

Tue Jan 12, 11:04pm

Tue Jan 12, 10:04pm

Tue Jan 12, 9:04pm

Tue Jan 12, 8:05pm

Tue Jan 12, 7:04pm

Meta data:

ID: d59f5e9c-0cb0-4088-889f-ec817098cccd
Link: https://api.weather.gov/products/d59f5e9c-0cb0-4088-889f-ec817098cccd